Martinsburg, WV

5:30 PM EST on December 05, 2019 (GMT -0500)
Eastern W Va Regional-Shepherd

Weather History for KMRB - October, 2019

Change the Weather History Date:

Tuesday, October 8, 2019

  Actual Average Record
Temperature  
Mean Temperature 59 °F 56 °F  
Max Temperature 64 °F 68 °F 97 °F (1941)
Min Temperature 53 °F 45 °F 26 °F (1964)
Degree Days  
Heating Degree Days 6 9  
Month to date heating degree days 24 63  
Since 1 July heating degree days 36 154  
Cooling Degree Days 0 1  
Month to date cooling degree days 37 8  
Year to date cooling degree days 1280 893  
Growing Degree Days 9 (Base 50)    
Moisture  
Dew Point 50 °F    
Average Humidity 78    
Maximum Humidity 93    
Minimum Humidity 52    
Precipitation  
Precipitation 0.19 in 0.10 in 1.25 in (1950)
Month to date precipitation 1.17 0.80  
Year to date precipitation 36.07 30.61  
Sea Level Pressure  
Sea Level Pressure 30.22 in    
Wind  
Wind Speed 6 mph ()    
Max Wind Speed 13 mph    
Max Gust Speed 16 mph    
Visibility 9.7 miles    
Events Rain    
T = Trace of Precipitation, MM = Missing Value Source: Averaged Metar Reports

Daily Weather History Graph

Daily Weather History Graph

Search for Another Location

Airport or City:

Astronomy

Oct. 08, 2019 Rise Set
Actual Time 7:14 AM EDT 6:43 PM EDT
Civil Twilight 6:47 AM EDT 7:10 PM EDT
Nautical Twilight 6:16 AM EDT 7:41 PM EDT
Astronomical Twilight 5:45 AM EDT 8:12 PM EDT
Moon 4:39 PM EDT (10/8) 2:04 AM EDT (10/8)
Length of Visible Light 12h 22m
Length of Day
11h 29m
Waxing Gibbous, 77% of the Moon is Illuminated
Oct 8
Waxing Gibbous
Oct 13
Full
Oct 21
Last Quarter
Oct 27
New
Nov 4
First Quarter

Hourly Weather History & Observations

Time (EDT) Temp. Dew Point Humidity Pressure Visibility Wind Dir Wind Speed Gust Speed Precip Events Conditions
12:53 AM 55.0 °F 51.1 °F 86% 30.20 in 10.0 mi NNW 8.1 mph - 0.00 in Rain Light Rain
1:53 AM 54.0 °F 51.1 °F 90% 30.21 in 10.0 mi North 6.9 mph - 0.01 in Rain Light Rain
3:53 AM 54.0 °F 51.1 °F 90% 30.21 in 10.0 mi North 8.1 mph - 0.02 in Rain Light Rain
4:53 AM 53.1 °F 51.1 °F 93% 30.22 in 10.0 mi North 9.2 mph - 0.01 in Rain Light Rain
5:53 AM 53.1 °F 51.1 °F 93% 30.24 in 10.0 mi North 6.9 mph - 0.00 in   Overcast
6:53 AM 53.1 °F 50.0 °F 89% 30.23 in 10.0 mi North 6.9 mph - 0.00 in   Overcast
7:53 AM 53.1 °F 50.0 °F 89% 30.24 in 10.0 mi North 8.1 mph - N/A   Overcast
8:53 AM 54.0 °F 51.1 °F 90% 30.25 in 10.0 mi North 6.9 mph - N/A   Overcast
9:53 AM 55.9 °F 51.1 °F 84% 30.27 in 10.0 mi North 6.9 mph - N/A   Mostly Cloudy
10:53 AM 57.0 °F 52.0 °F 83% 30.26 in 10.0 mi North 9.2 mph - 0.00 in   Partly Cloudy
11:53 AM 57.9 °F 53.1 °F 84% 30.25 in 10.0 mi North 6.9 mph - 0.01 in Rain Light Rain
12:53 PM 60.1 °F 52.0 °F 75% 30.24 in 10.0 mi NNE 8.1 mph - 0.00 in   Mostly Cloudy
1:53 PM 60.1 °F 51.1 °F 72% 30.22 in 10.0 mi North 8.1 mph - 0.00 in Rain Light Rain
2:53 PM 62.1 °F 48.9 °F 62% 30.20 in 10.0 mi NE 9.2 mph - 0.00 in   Scattered Clouds
3:53 PM 63.0 °F 48.0 °F 58% 30.19 in 10.0 mi NE 6.9 mph - N/A   Mostly Cloudy
4:53 PM 64.0 °F 46.0 °F 52% 30.19 in 10.0 mi NNE 11.5 mph - N/A   Clear
5:53 PM 61.0 °F 45.0 °F 56% 30.20 in 10.0 mi ENE 3.5 mph - N/A   Clear
6:53 PM 57.9 °F 48.0 °F 70% 30.20 in 10.0 mi Calm Calm - N/A   Clear
7:53 PM 59.0 °F 48.0 °F 67% 30.22 in 10.0 mi North 5.8 mph - N/A   Partly Cloudy
8:53 PM 59.0 °F 48.9 °F 69% 30.22 in 10.0 mi NNE 4.6 mph - N/A   Clear
9:53 PM 57.9 °F 48.9 °F 72% 30.22 in 10.0 mi NNE 4.6 mph - 0.00 in Rain Light Rain
10:53 PM 55.0 °F 50.0 °F 83% 30.24 in 5.0 mi NW 4.6 mph - 0.05 in Rain Light Rain
11:53 PM 53.1 °F 51.1 °F 93% 30.24 in 9.0 mi Calm Calm - 0.08 in Rain Light Rain